Location: Newark
(43.6583°N, 1.6617°E)
Time: 22:00:19
(UTC+00:00)

Vanguard 1 Rocket - Pass Details

Date: 25 August 2019
Orbit: 652 x 4225 km, 34.3° (Epoch: 15 September)

Event Time Altitude Azimuth Distance (km) Brightness Sun altitude
Rises 04:05:34 0° 256° (WSW) 3,018 - -11.4°
Reaches altitude 10° 04:07:48 10° 245° (WSW) 2,217 - -11.1°
Exits shadow 04:08:36 15° 239° (WSW) 1,971 8.5 -10.9°
Maximum altitude 04:12:11 32° 182° (S) 1,505 8.3 -10.4°
Drops below altitude 10° 04:18:41 10° 122° (ESE) 3,335 10.8 -9.3°
Sets 04:22:53 0° 114° (ESE) 4,861 11.8 -8.6°
